Centerville, IA

1:41 AM CDT on June 27, 2017 (GMT -0500)
Centerville Municipal

Weather History for KTVK - January, 2013

Change the Weather History Date:

Sunday, January 6, 2013

  Actual Average Record
Temperature  
Mean Temperature 25 °F -  
Max Temperature 35 °F 29 °F 56 °F (1961)
Min Temperature 15 °F 14 °F -11 °F (1979)
Degree Days  
Heating Degree Days 40    
Moisture  
Dew Point 16 °F    
Average Humidity 68    
Maximum Humidity 93    
Minimum Humidity 44    
Precipitation  
Precipitation 0.00 in - - ()
Sea Level Pressure  
Sea Level Pressure 30.25 in    
Wind  
Wind Speed 14 mph (West)    
Max Wind Speed 22 mph    
Max Gust Speed 28 mph    
Visibility 10 miles    
Events      
Averages and records for this station are not official NWS values.
T = Trace of Precipitation, MM = Missing Value Source: NWS Daily Summary

Daily Weather History Graph

Daily Weather History Graph

Search for Another Location

Airport or City:

Trip Planner

Search our weather history database for the weather conditions in past years. The results will help you decide how hot, cold, wet, or windy it might be!

Date:

Astronomy

Jan. 06, 2013 Rise Set
Actual Time 7:35 AM CST 4:59 PM CST
Civil Twilight 7:05 AM CST 5:30 PM CST
Nautical Twilight 6:30 AM CST 6:04 PM CST
Astronomical Twilight 5:57 AM CST 6:37 PM CST
Moon 1:49 AM CST (1/6) 12:28 PM CST (1/6)
Length of Visible Light 10h 25m
Length of Day
9h 24m
Waning Crescent, 33% of the Moon is Illuminated
Jan 6
Waning Crescent
Jan 11
New
Jan 18
First Quarter
Jan 26
Full
Feb 3
Last Quarter

Hourly Weather History & Observations

Time (CST) Temp. Windchill Dew Point Humidity Pressure Visibility Wind Dir Wind Speed Gust Speed Precip Events Conditions
12:15 AM 28.4 °F 14.7 °F 23.0 °F 80% 30.07 in 10.0 mi WNW 21.9 mph 26.5 mph N/A   Overcast
12:35 AM 28.4 °F 15.8 °F 23.0 °F 80% 30.08 in 10.0 mi NW 18.4 mph 23.0 mph N/A   Overcast
12:55 AM 26.6 °F 13.8 °F 21.2 °F 80% 30.09 in 10.0 mi WNW 17.3 mph 23.0 mph N/A   Overcast
1:35 AM 26.6 °F 14.7 °F 21.2 °F 80% 30.09 in 10.0 mi NW 15.0 mph - N/A   Overcast
1:55 AM 26.6 °F 15.2 °F 23.0 °F 86% 30.10 in 10.0 mi WNW 13.8 mph - N/A   Overcast
2:15 AM 26.6 °F 13.4 °F 21.2 °F 80% 30.10 in 10.0 mi WNW 18.4 mph 24.2 mph N/A   Overcast
2:35 AM 24.8 °F 11.1 °F 19.4 °F 80% 30.11 in 10.0 mi WNW 18.4 mph - N/A   Overcast
2:55 AM 24.8 °F 12.9 °F 17.6 °F 74% 30.13 in 10.0 mi WNW 13.8 mph - N/A   Overcast
3:15 AM 24.8 °F 10.7 °F 17.6 °F 74% 30.14 in 10.0 mi WNW 19.6 mph 24.2 mph N/A   Overcast
3:35 AM 24.8 °F 11.9 °F 17.6 °F 74% 30.14 in 10.0 mi WNW 16.1 mph - N/A   Overcast
3:55 AM 23.0 °F 8.3 °F 17.6 °F 80% 30.15 in 10.0 mi WNW 19.6 mph - N/A   Overcast
4:15 AM 23.0 °F 8.0 °F 17.6 °F 80% 30.16 in 10.0 mi WNW 20.7 mph 27.6 mph N/A   Overcast
4:35 AM 23.0 °F 8.0 °F 17.6 °F 80% 30.17 in 10.0 mi WNW 20.7 mph 25.3 mph N/A   Overcast
4:55 AM 19.4 °F 6.0 °F 15.8 °F 86% 30.18 in 10.0 mi West 13.8 mph - N/A   Overcast
5:15 AM 19.4 °F 6.6 °F 15.8 °F 86% 30.18 in 10.0 mi West 12.7 mph - N/A   Overcast
5:35 AM 19.4 °F 5.5 °F 15.8 °F 86% 30.19 in 10.0 mi WNW 15.0 mph - N/A   Overcast
5:55 AM 17.6 °F 3.2 °F 14.0 °F 86% 30.20 in 10.0 mi WNW 15.0 mph - N/A   Mostly Cloudy
6:15 AM 17.6 °F 5.0 °F 14.0 °F 86% 30.21 in 10.0 mi West 11.5 mph - N/A   Partly Cloudy
6:35 AM 17.6 °F 6.4 °F 14.0 °F 86% 30.22 in 10.0 mi West 9.2 mph - N/A   Clear
6:55 AM 17.6 °F 5.0 °F 14.0 °F 86% 30.23 in 10.0 mi West 11.5 mph - N/A   Clear
7:15 AM 15.8 °F 2.1 °F 14.0 °F 93% 30.24 in 10.0 mi West 12.7 mph - N/A   Clear
7:35 AM 15.8 °F 4.2 °F 14.0 °F 93% 30.25 in 10.0 mi West 9.2 mph - N/A   Clear
7:55 AM 15.8 °F 3.4 °F 14.0 °F 93% 30.25 in 10.0 mi West 10.4 mph - N/A   Clear
8:15 AM 17.6 °F 4.3 °F 14.0 °F 86% 30.26 in 10.0 mi West 12.7 mph - N/A   Clear
8:35 AM 17.6 °F 3.7 °F 14.0 °F 86% 30.27 in 10.0 mi West 13.8 mph - N/A   Clear
8:55 AM 19.4 °F 6.0 °F 14.0 °F 80% 30.27 in 10.0 mi West 13.8 mph 18.4 mph N/A   Clear
9:15 AM 19.4 °F 6.6 °F 14.0 °F 80% 30.27 in 10.0 mi West 12.7 mph - N/A   Clear
9:35 AM 21.2 °F 8.9 °F 12.2 °F 68% 30.28 in 10.0 mi West 12.7 mph - N/A   Clear
9:55 AM 23.0 °F 10.6 °F 12.2 °F 63% 30.30 in 10.0 mi WNW 13.8 mph - N/A   Clear
10:15 AM 23.0 °F 11.1 °F 10.4 °F 59% 30.30 in 10.0 mi WNW 12.7 mph - N/A   Clear
10:35 AM 24.8 °F 13.4 °F 10.4 °F 54% 30.31 in 10.0 mi WNW 12.7 mph 17.3 mph N/A   Clear
10:55 AM 26.6 °F 15.7 °F 10.4 °F 51% 30.31 in 10.0 mi NW 12.7 mph - N/A   Clear
11:15 AM 26.6 °F 16.2 °F 10.4 °F 51% 30.31 in 10.0 mi West 11.5 mph - N/A   Clear
11:35 AM 28.4 °F 19.1 °F 10.4 °F 47% 30.30 in 10.0 mi West 10.4 mph - N/A   Clear
11:55 AM 28.4 °F 18.5 °F 10.4 °F 47% 30.29 in 10.0 mi West 11.5 mph - N/A   Clear
12:15 PM 30.2 °F 20.8 °F 12.2 °F 47% 30.29 in 10.0 mi West 11.5 mph - N/A   Clear
12:35 PM 32.0 °F 23.0 °F 12.2 °F 44% 30.28 in 10.0 mi West 11.5 mph - N/A   Clear
12:55 PM 32.0 °F 23.6 °F 14.0 °F 48% 30.28 in 10.0 mi West 10.4 mph - N/A   Clear
1:15 PM 32.0 °F 23.6 °F 14.0 °F 48% 30.27 in 10.0 mi WNW 10.4 mph - N/A   Clear
1:35 PM 32.0 °F 24.8 °F 14.0 °F 48% 30.27 in 10.0 mi NW 8.1 mph - N/A   Clear
1:55 PM 33.8 °F 28.6 °F 14.0 °F 44% 30.28 in 10.0 mi WNW 5.8 mph - N/A   Clear
2:15 PM 33.8 °F 26.4 °F 14.0 °F 44% 30.28 in 10.0 mi WNW 9.2 mph - N/A   Clear
2:35 PM 35.6 °F 28.6 °F 15.8 °F 44% 30.28 in 10.0 mi West 9.2 mph - N/A   Clear
2:55 PM 35.6 °F 29.9 °F 15.8 °F 44% 30.28 in 10.0 mi West 6.9 mph - N/A   Clear
3:15 PM 35.6 °F 29.2 °F 15.8 °F 44% 30.29 in 10.0 mi West 8.1 mph - N/A   Clear
3:35 PM 35.6 °F 29.9 °F 15.8 °F 44% 30.29 in 10.0 mi West 6.9 mph - N/A   Clear
3:55 PM 35.6 °F 29.2 °F 15.8 °F 44% 30.29 in 10.0 mi West 8.1 mph - N/A   Clear
4:15 PM 35.6 °F 30.7 °F 15.8 °F 44% 30.29 in 10.0 mi West 5.8 mph - N/A   Clear
4:35 PM 33.8 °F 29.6 °F 17.6 °F 52% 30.29 in 10.0 mi WSW 4.6 mph - N/A   Clear
4:55 PM 32.0 °F 27.5 °F 17.6 °F 55% 30.30 in - WSW 4.6 mph - N/A   Clear
5:15 PM 30.2 °F 26.7 °F 15.8 °F 55% 30.29 in - SW 3.5 mph - N/A   Clear
5:35 PM 32.0 °F 28.7 °F 15.8 °F 51% 30.30 in - SSW 3.5 mph - N/A   Clear
5:55 PM 30.2 °F 26.7 °F 15.8 °F 55% 30.30 in - SSW 3.5 mph - N/A   Clear
6:15 PM 30.2 °F 25.4 °F 15.8 °F 55% 30.30 in - SSW 4.6 mph - N/A   Clear
6:35 PM 28.4 °F 22.2 °F 15.8 °F 59% 30.30 in - South 5.8 mph - N/A   Clear
6:55 PM 26.6 °F 19.1 °F 17.6 °F 69% 30.31 in - South 6.9 mph - N/A   Clear
7:15 PM 24.8 °F 16.1 °F 17.6 °F 74% 30.31 in - South 8.1 mph - N/A   Clear
7:35 PM 26.6 °F 18.2 °F 19.4 °F 74% 30.30 in - South 8.1 mph - N/A   Clear
7:55 PM 26.6 °F 18.2 °F 19.4 °F 74% 30.30 in - South 8.1 mph - N/A   Clear
8:15 PM 26.6 °F 18.2 °F 19.4 °F 74% 30.30 in - South 8.1 mph - N/A   Clear
8:35 PM 24.8 °F 16.9 °F 19.4 °F 80% 30.30 in - South 6.9 mph - N/A   Clear
8:55 PM 24.8 °F 16.9 °F 19.4 °F 80% 30.29 in - South 6.9 mph - N/A   Clear
9:15 PM 24.8 °F 16.9 °F 19.4 °F 80% 30.29 in - South 6.9 mph - N/A   Clear
9:35 PM 24.8 °F 16.9 °F 19.4 °F 80% 30.29 in - South 6.9 mph - N/A   Clear
9:55 PM 24.8 °F 16.9 °F 17.6 °F 74% 30.29 in - South 6.9 mph - N/A   Clear
10:15 PM 23.0 °F 13.9 °F 17.6 °F 80% 30.28 in - SSE 8.1 mph - N/A   Clear
10:55 PM 23.0 °F 13.9 °F 19.4 °F 86% 30.26 in - South 8.1 mph - N/A   Unknown
11:15 PM 23.0 °F 13.9 °F 17.6 °F 80% 30.26 in - SSE 8.1 mph - N/A   Clear